パンスターズ彗星

C/2017 G3 ( PanSTARRS )

English version
Home page
Updated on March 3, 2018

---------------------------------------------------------------------

・ プロフィール

発見日 2017年4月7日
発見光度 19.6等
発見者 Pan-STARRS 1 telescope (Haleakala)

・ 写真集

・ 軌道要素

Epoch 2017 Mar. 28.0 TT = JDT 2457840.5
T 2017 Apr. 15.04719 TT                                 MPCW
q   2.5904855            (2000.0)            P               Q
z  +0.0034698      Peri.   73.09487     -0.83355638     -0.42521666
 +/-0.0000052      Node   279.46551     -0.53405506     +0.78355283
e   0.9910115      Incl.  159.05107     +0.14131153     +0.45302953
From 140 observations 2017 Apr. 7-2018 Jan. 20, mean residual 0".4.

・ 光度変化

        m1 = 14.0 + 5 logΔ + 10.0 log r

---------------------------------------------------------------------

軌道要素はM.P.E.C. 2018-D91に掲載されたものです。
光度グラフはComet for Windowsで作成したものです。

---------------------------------------------------------------------

Copyright(C) Seiichi Yoshida (comet@aerith.net). All rights reserved.